#datetime,building,power
2022-02-05T00:00:00,mcc,44.75
2022-02-05T00:01:00,mcc,45.22
2022-02-05T00:02:00,mcc,43.97
2022-02-05T00:03:00,mcc,44.00
2022-02-05T00:04:00,mcc,41.81
2022-02-05T00:05:00,mcc,42.82
2022-02-05T00:06:00,mcc,43.91
2022-02-05T00:07:00,mcc,40.89
2022-02-05T00:08:00,mcc,41.63
2022-02-05T00:09:00,mcc,45.02
2022-02-05T00:10:00,mcc,40.80
2022-02-05T00:11:00,mcc,38.60
2022-02-05T00:12:00,mcc,45.11
2022-02-05T00:13:00,mcc,39.95
2022-02-05T00:14:00,mcc,40.33
2022-02-05T00:15:00,mcc,43.24
2022-02-05T00:16:00,mcc,41.38
2022-02-05T00:17:00,mcc,40.94
2022-02-05T00:18:00,mcc,40.02
2022-02-05T00:19:00,mcc,37.64
2022-02-05T00:20:00,mcc,36.98
2022-02-05T00:21:00,mcc,40.86
2022-02-05T00:22:00,mcc,39.61
2022-02-05T00:23:00,mcc,39.98
2022-02-05T00:24:00,mcc,39.73
2022-02-05T00:25:00,mcc,37.25
2022-02-05T00:26:00,mcc,40.02
2022-02-05T00:27:00,mcc,38.18
2022-02-05T00:28:00,mcc,38.50
2022-02-05T00:29:00,mcc,38.65
2022-02-05T00:30:00,mcc,40.15
2022-02-05T00:31:00,mcc,36.07
2022-02-05T00:32:00,mcc,36.55
2022-02-05T00:33:00,mcc,39.12
2022-02-05T00:34:00,mcc,37.60
2022-02-05T00:35:00,mcc,36.73
2022-02-05T00:36:00,mcc,38.60
2022-02-05T00:37:00,mcc,36.63
2022-02-05T00:38:00,mcc,37.12
2022-02-05T00:39:00,mcc,37.59
2022-02-05T00:40:00,mcc,36.20
2022-02-05T00:41:00,mcc,35.52
2022-02-05T00:42:00,mcc,39.11
2022-02-05T00:43:00,mcc,39.39
2022-02-05T00:44:00,mcc,40.25
2022-02-05T00:45:00,mcc,39.51
2022-02-05T00:46:00,mcc,39.50
2022-02-05T00:47:00,mcc,38.87
2022-02-05T00:48:00,mcc,37.18
2022-02-05T00:49:00,mcc,38.18
2022-02-05T00:50:00,mcc,35.99
2022-02-05T00:51:00,mcc,38.31
2022-02-05T00:52:00,mcc,37.58
2022-02-05T00:53:00,mcc,37.18
2022-02-05T00:54:00,mcc,39.60
2022-02-05T00:55:00,mcc,37.50
2022-02-05T00:56:00,mcc,36.42
2022-02-05T00:57:00,mcc,37.05
2022-02-05T00:58:00,mcc,35.93
2022-02-05T00:59:00,mcc,36.85
2022-02-05T01:00:00,mcc,37.78
2022-02-05T01:01:00,mcc,36.30
2022-02-05T01:02:00,mcc,35.87
2022-02-05T01:03:00,mcc,37.16
2022-02-05T01:04:00,mcc,37.37
2022-02-05T01:05:00,mcc,36.54
2022-02-05T01:06:00,mcc,39.39
2022-02-05T01:07:00,mcc,37.57
2022-02-05T01:08:00,mcc,36.62
2022-02-05T01:09:00,mcc,38.41
2022-02-05T01:10:00,mcc,37.73
2022-02-05T01:11:00,mcc,37.68
2022-02-05T01:12:00,mcc,36.64
2022-02-05T01:13:00,mcc,35.59
2022-02-05T01:14:00,mcc,37.59
2022-02-05T01:15:00,mcc,36.71
2022-02-05T01:16:00,mcc,36.23
2022-02-05T01:17:00,mcc,36.61
2022-02-05T01:18:00,mcc,37.17
2022-02-05T01:19:00,mcc,37.47
2022-02-05T01:20:00,mcc,37.77
2022-02-05T01:21:00,mcc,43.50
2022-02-05T01:22:00,mcc,35.42
2022-02-05T01:23:00,mcc,36.72
2022-02-05T01:24:00,mcc,35.82
2022-02-05T01:25:00,mcc,35.25
2022-02-05T01:26:00,mcc,34.61
2022-02-05T01:27:00,mcc,37.94
2022-02-05T01:28:00,mcc,35.78
2022-02-05T01:29:00,mcc,35.27
2022-02-05T01:30:00,mcc,38.77
2022-02-05T01:31:00,mcc,37.20
2022-02-05T01:32:00,mcc,37.41
2022-02-05T01:33:00,mcc,36.54
2022-02-05T01:34:00,mcc,35.21
2022-02-05T01:35:00,mcc,34.91
2022-02-05T01:36:00,mcc,38.94
2022-02-05T01:37:00,mcc,38.97
2022-02-05T01:38:00,mcc,39.82
2022-02-05T01:39:00,mcc,49.23
2022-02-05T01:40:00,mcc,37.27
2022-02-05T01:41:00,mcc,36.53
2022-02-05T01:42:00,mcc,39.72
2022-02-05T01:43:00,mcc,38.01
2022-02-05T01:44:00,mcc,41.79
2022-02-05T01:45:00,mcc,39.63
2022-02-05T01:46:00,mcc,37.10
2022-02-05T01:47:00,mcc,33.25
2022-02-05T01:48:00,mcc,33.77
2022-02-05T01:49:00,mcc,33.58
2022-02-05T01:50:00,mcc,34.07
2022-02-05T01:51:00,mcc,36.16
2022-02-05T01:52:00,mcc,36.62
2022-02-05T01:53:00,mcc,36.57
2022-02-05T01:54:00,mcc,35.31
2022-02-05T01:55:00,mcc,35.73
2022-02-05T01:56:00,mcc,35.48
2022-02-05T01:57:00,mcc,37.19
2022-02-05T01:58:00,mcc,35.17
2022-02-05T01:59:00,mcc,35.95
2022-02-05T02:00:00,mcc,39.28
2022-02-05T02:01:00,mcc,38.02
2022-02-05T02:02:00,mcc,44.69
2022-02-05T02:03:00,mcc,48.94
2022-02-05T02:04:00,mcc,47.75
2022-02-05T02:05:00,mcc,46.62
2022-02-05T02:06:00,mcc,47.42
2022-02-05T02:07:00,mcc,56.83
2022-02-05T02:08:00,mcc,48.33
2022-02-05T02:09:00,mcc,48.78
2022-02-05T02:10:00,mcc,47.35
2022-02-05T02:11:00,mcc,45.59
2022-02-05T02:12:00,mcc,47.42
2022-02-05T02:13:00,mcc,45.15
2022-02-05T02:14:00,mcc,43.63
2022-02-05T02:15:00,mcc,46.05
2022-02-05T02:16:00,mcc,45.78
2022-02-05T02:17:00,mcc,45.89
2022-02-05T02:18:00,mcc,47.21
2022-02-05T02:19:00,mcc,46.10
2022-02-05T02:20:00,mcc,45.50
2022-02-05T02:21:00,mcc,45.94
2022-02-05T02:22:00,mcc,44.16
2022-02-05T02:23:00,mcc,45.14
2022-02-05T02:24:00,mcc,45.69
2022-02-05T02:25:00,mcc,45.08
2022-02-05T02:26:00,mcc,52.13
2022-02-05T02:27:00,mcc,55.06
2022-02-05T02:28:00,mcc,53.39
2022-02-05T02:29:00,mcc,52.34
2022-02-05T02:30:00,mcc,54.13
2022-02-05T02:31:00,mcc,44.96
2022-02-05T02:32:00,mcc,48.32
2022-02-05T02:33:00,mcc,50.05
2022-02-05T02:34:00,mcc,49.15
2022-02-05T02:35:00,mcc,46.82
2022-02-05T02:36:00,mcc,46.22
2022-02-05T02:37:00,mcc,43.98
2022-02-05T02:38:00,mcc,45.36
2022-02-05T02:39:00,mcc,47.77
2022-02-05T02:40:00,mcc,45.05
2022-02-05T02:41:00,mcc,45.11
2022-02-05T02:42:00,mcc,47.53
2022-02-05T02:43:00,mcc,45.33
2022-02-05T02:44:00,mcc,44.44
2022-02-05T02:45:00,mcc,47.26
2022-02-05T02:46:00,mcc,47.62
2022-02-05T02:47:00,mcc,46.69
2022-02-05T02:48:00,mcc,46.60
2022-02-05T02:49:00,mcc,44.26
2022-02-05T02:50:00,mcc,52.82
2022-02-05T02:51:00,mcc,48.14
2022-02-05T02:52:00,mcc,46.65
2022-02-05T02:53:00,mcc,48.63
2022-02-05T02:54:00,mcc,51.60
2022-02-05T02:55:00,mcc,48.14
2022-02-05T02:56:00,mcc,49.49
2022-02-05T02:57:00,mcc,62.16
2022-02-05T02:58:00,mcc,50.12
2022-02-05T02:59:00,mcc,50.65
2022-02-05T03:00:00,mcc,49.67
2022-02-05T03:01:00,mcc,44.14
2022-02-05T03:02:00,mcc,45.07
2022-02-05T03:03:00,mcc,45.92
2022-02-05T03:04:00,mcc,44.53
2022-02-05T03:05:00,mcc,46.39
2022-02-05T03:06:00,mcc,46.31
2022-02-05T03:07:00,mcc,45.16
2022-02-05T03:08:00,mcc,52.02
2022-02-05T03:09:00,mcc,43.62
2022-02-05T03:10:00,mcc,44.82
2022-02-05T03:11:00,mcc,46.23
2022-02-05T03:12:00,mcc,43.81
2022-02-05T03:13:00,mcc,43.46
2022-02-05T03:14:00,mcc,44.99
2022-02-05T03:15:00,mcc,45.45
2022-02-05T03:16:00,mcc,44.66
2022-02-05T03:17:00,mcc,44.32
2022-02-05T03:18:00,mcc,43.73
2022-02-05T03:19:00,mcc,45.72
2022-02-05T03:20:00,mcc,45.06
2022-02-05T03:21:00,mcc,46.49
2022-02-05T03:22:00,mcc,47.01
2022-02-05T03:23:00,mcc,47.72
2022-02-05T03:24:00,mcc,50.75
2022-02-05T03:25:00,mcc,47.14
2022-02-05T03:26:00,mcc,48.47
2022-02-05T03:27:00,mcc,46.93
2022-02-05T03:28:00,mcc,45.48
2022-02-05T03:29:00,mcc,45.64
2022-02-05T03:30:00,mcc,47.68
2022-02-05T03:31:00,mcc,57.45
2022-02-05T03:32:00,mcc,55.03
2022-02-05T03:33:00,mcc,57.10
2022-02-05T03:34:00,mcc,56.37
2022-02-05T03:35:00,mcc,45.77
2022-02-05T03:36:00,mcc,43.64
2022-02-05T03:37:00,mcc,46.92
2022-02-05T03:38:00,mcc,44.32
2022-02-05T03:39:00,mcc,42.71
2022-02-05T03:40:00,mcc,46.75
2022-02-05T03:41:00,mcc,47.14
2022-02-05T03:42:00,mcc,46.40
2022-02-05T03:43:00,mcc,47.59
2022-02-05T03:44:00,mcc,44.53
2022-02-05T03:45:00,mcc,43.94
2022-02-05T03:46:00,mcc,49.00
2022-02-05T03:47:00,mcc,48.19
2022-02-05T03:48:00,mcc,48.78
2022-02-05T03:49:00,mcc,52.38
2022-02-05T03:50:00,mcc,50.31
2022-02-05T03:51:00,mcc,51.48
2022-02-05T03:52:00,mcc,48.14
2022-02-05T03:53:00,mcc,46.48
2022-02-05T03:54:00,mcc,46.84
2022-02-05T03:55:00,mcc,42.34
2022-02-05T03:56:00,mcc,38.51
2022-02-05T03:57:00,mcc,39.02
2022-02-05T03:58:00,mcc,40.69
2022-02-05T03:59:00,mcc,42.43
2022-02-05T04:00:00,mcc,40.68
2022-02-05T04:01:00,mcc,41.78
2022-02-05T04:02:00,mcc,39.33
2022-02-05T04:03:00,mcc,44.94
2022-02-05T04:04:00,mcc,38.35
2022-02-05T04:05:00,mcc,36.90
2022-02-05T04:06:00,mcc,37.99
2022-02-05T04:07:00,mcc,43.38
2022-02-05T04:08:00,mcc,39.78
2022-02-05T04:09:00,mcc,36.61
2022-02-05T04:10:00,mcc,37.47
2022-02-05T04:11:00,mcc,38.60
2022-02-05T04:12:00,mcc,38.56
2022-02-05T04:13:00,mcc,42.54
2022-02-05T04:14:00,mcc,43.52
2022-02-05T04:15:00,mcc,40.00
2022-02-05T04:16:00,mcc,43.26
2022-02-05T04:17:00,mcc,39.67
2022-02-05T04:18:00,mcc,38.00
2022-02-05T04:19:00,mcc,40.16
2022-02-05T04:20:00,mcc,40.45
2022-02-05T04:21:00,mcc,41.29
2022-02-05T04:22:00,mcc,42.16
2022-02-05T04:23:00,mcc,40.28
2022-02-05T04:24:00,mcc,39.00
2022-02-05T04:25:00,mcc,41.13
2022-02-05T04:26:00,mcc,37.53
2022-02-05T04:27:00,mcc,37.72
2022-02-05T04:28:00,mcc,40.07
2022-02-05T04:29:00,mcc,39.13
2022-02-05T04:30:00,mcc,36.89
2022-02-05T04:31:00,mcc,41.08
2022-02-05T04:32:00,mcc,39.99
2022-02-05T04:33:00,mcc,40.17
2022-02-05T04:34:00,mcc,42.83
2022-02-05T04:35:00,mcc,41.80
2022-02-05T04:36:00,mcc,43.91
2022-02-05T04:37:00,mcc,44.11
2022-02-05T04:38:00,mcc,44.08
2022-02-05T04:39:00,mcc,43.90
2022-02-05T04:40:00,mcc,40.80
2022-02-05T04:41:00,mcc,39.18
2022-02-05T04:42:00,mcc,40.27
2022-02-05T04:43:00,mcc,40.27
2022-02-05T04:44:00,mcc,38.98
2022-02-05T04:45:00,mcc,38.33
2022-02-05T04:46:00,mcc,38.00
2022-02-05T04:47:00,mcc,38.02
2022-02-05T04:48:00,mcc,37.69
2022-02-05T04:49:00,mcc,39.44
2022-02-05T04:50:00,mcc,39.81
2022-02-05T04:51:00,mcc,39.68
2022-02-05T04:52:00,mcc,39.08
2022-02-05T04:53:00,mcc,38.97
2022-02-05T04:54:00,mcc,40.18
2022-02-05T04:55:00,mcc,42.59
2022-02-05T04:56:00,mcc,41.50
2022-02-05T04:57:00,mcc,49.40
2022-02-05T04:58:00,mcc,41.22
2022-02-05T04:59:00,mcc,39.80
2022-02-05T05:00:00,mcc,40.56
2022-02-05T05:01:00,mcc,40.73
2022-02-05T05:02:00,mcc,40.54
2022-02-05T05:03:00,mcc,42.71
2022-02-05T05:04:00,mcc,44.17
2022-02-05T05:05:00,mcc,41.72
2022-02-05T05:06:00,mcc,40.07
2022-02-05T05:07:00,mcc,42.87
2022-02-05T05:08:00,mcc,40.98
2022-02-05T05:09:00,mcc,41.25
2022-02-05T05:10:00,mcc,40.04
2022-02-05T05:11:00,mcc,39.22
2022-02-05T05:12:00,mcc,36.34
2022-02-05T05:13:00,mcc,38.60
2022-02-05T05:14:00,mcc,35.14
2022-02-05T05:15:00,mcc,35.53
2022-02-05T05:16:00,mcc,39.47
2022-02-05T05:17:00,mcc,38.28
2022-02-05T05:18:00,mcc,40.55
2022-02-05T05:19:00,mcc,40.54
2022-02-05T05:20:00,mcc,38.66
2022-02-05T05:21:00,mcc,38.04
2022-02-05T05:22:00,mcc,38.33
2022-02-05T05:23:00,mcc,37.45
2022-02-05T05:24:00,mcc,37.97
2022-02-05T05:25:00,mcc,41.06
2022-02-05T05:26:00,mcc,41.34
2022-02-05T05:27:00,mcc,40.10
2022-02-05T05:28:00,mcc,40.39
2022-02-05T05:29:00,mcc,40.46
2022-02-05T05:30:00,mcc,39.62
2022-02-05T05:31:00,mcc,38.20
2022-02-05T05:32:00,mcc,38.56
2022-02-05T05:33:00,mcc,48.15
2022-02-05T05:34:00,mcc,37.56
2022-02-05T05:35:00,mcc,35.59
2022-02-05T05:36:00,mcc,34.30
2022-02-05T05:37:00,mcc,35.69
2022-02-05T05:38:00,mcc,38.44
2022-02-05T05:39:00,mcc,37.52
2022-02-05T05:40:00,mcc,37.62
2022-02-05T05:41:00,mcc,37.68
2022-02-05T05:42:00,mcc,37.10
2022-02-05T05:43:00,mcc,36.34
2022-02-05T05:44:00,mcc,36.29
2022-02-05T05:45:00,mcc,37.14
2022-02-05T05:46:00,mcc,38.51
2022-02-05T05:47:00,mcc,35.73
2022-02-05T05:48:00,mcc,35.96
2022-02-05T05:49:00,mcc,47.32
2022-02-05T05:50:00,mcc,51.51
2022-02-05T05:51:00,mcc,43.80
2022-02-05T05:52:00,mcc,44.27
2022-02-05T05:53:00,mcc,36.77
2022-02-05T05:54:00,mcc,37.08
2022-02-05T05:55:00,mcc,37.77
2022-02-05T05:56:00,mcc,38.09
2022-02-05T05:57:00,mcc,37.15
2022-02-05T05:58:00,mcc,38.20
2022-02-05T05:59:00,mcc,37.97
2022-02-05T06:00:00,mcc,37.47
2022-02-05T06:01:00,mcc,37.51
2022-02-05T06:02:00,mcc,38.22
2022-02-05T06:03:00,mcc,38.87
2022-02-05T06:04:00,mcc,34.81
2022-02-05T06:05:00,mcc,34.11
2022-02-05T06:06:00,mcc,34.21
2022-02-05T06:07:00,mcc,33.60
2022-02-05T06:08:00,mcc,44.42
2022-02-05T06:09:00,mcc,38.29
2022-02-05T06:10:00,mcc,39.08
2022-02-05T06:11:00,mcc,37.98
2022-02-05T06:12:00,mcc,36.79
2022-02-05T06:13:00,mcc,36.84
2022-02-05T06:14:00,mcc,37.19
2022-02-05T06:15:00,mcc,40.75
2022-02-05T06:16:00,mcc,39.62
2022-02-05T06:17:00,mcc,38.86
2022-02-05T06:18:00,mcc,36.84
2022-02-05T06:19:00,mcc,37.97
2022-02-05T06:20:00,mcc,39.80
2022-02-05T06:21:00,mcc,37.43
2022-02-05T06:22:00,mcc,49.87
2022-02-05T06:23:00,mcc,42.51
2022-02-05T06:24:00,mcc,40.26
2022-02-05T06:25:00,mcc,37.82
2022-02-05T06:26:00,mcc,46.73
2022-02-05T06:27:00,mcc,34.82
2022-02-05T06:28:00,mcc,35.25
2022-02-05T06:29:00,mcc,38.02
2022-02-05T06:30:00,mcc,35.45
2022-02-05T06:31:00,mcc,36.40
2022-02-05T06:32:00,mcc,36.34
2022-02-05T06:33:00,mcc,36.88
2022-02-05T06:34:00,mcc,35.96
2022-02-05T06:35:00,mcc,34.60
2022-02-05T06:36:00,mcc,35.35
2022-02-05T06:37:00,mcc,33.59
2022-02-05T06:38:00,mcc,33.28
2022-02-05T06:39:00,mcc,34.66
2022-02-05T06:40:00,mcc,34.36
2022-02-05T06:41:00,mcc,35.49
2022-02-05T06:42:00,mcc,35.08
2022-02-05T06:43:00,mcc,36.46
2022-02-05T06:44:00,mcc,38.09
2022-02-05T06:45:00,mcc,37.95
2022-02-05T06:46:00,mcc,39.34
2022-02-05T06:47:00,mcc,39.70
2022-02-05T06:48:00,mcc,39.29
2022-02-05T06:49:00,mcc,39.32
2022-02-05T06:50:00,mcc,41.78
2022-02-05T06:51:00,mcc,41.10
2022-02-05T06:52:00,mcc,37.75
2022-02-05T06:53:00,mcc,38.35
2022-02-05T06:54:00,mcc,35.03
2022-02-05T06:55:00,mcc,35.54
2022-02-05T06:56:00,mcc,40.32
2022-02-05T06:57:00,mcc,37.73
2022-02-05T06:58:00,mcc,35.76
2022-02-05T06:59:00,mcc,35.58
2022-02-05T07:00:00,mcc,35.41
2022-02-05T07:01:00,mcc,35.74
2022-02-05T07:02:00,mcc,36.82
2022-02-05T07:03:00,mcc,38.07
2022-02-05T07:04:00,mcc,38.07
2022-02-05T07:05:00,mcc,36.53
2022-02-05T07:06:00,mcc,36.00
2022-02-05T07:07:00,mcc,36.08
2022-02-05T07:08:00,mcc,35.98
2022-02-05T07:09:00,mcc,36.73
2022-02-05T07:10:00,mcc,37.79
2022-02-05T07:11:00,mcc,38.96
2022-02-05T07:12:00,mcc,37.46
2022-02-05T07:13:00,mcc,36.42
2022-02-05T07:14:00,mcc,38.52
2022-02-05T07:15:00,mcc,36.71
2022-02-05T07:16:00,mcc,39.25
2022-02-05T07:17:00,mcc,39.58
2022-02-05T07:18:00,mcc,37.54
2022-02-05T07:19:00,mcc,43.65
2022-02-05T07:20:00,mcc,37.17
2022-02-05T07:21:00,mcc,44.97
2022-02-05T07:22:00,mcc,44.31
2022-02-05T07:23:00,mcc,45.06
2022-02-05T07:24:00,mcc,35.43
2022-02-05T07:25:00,mcc,36.33
2022-02-05T07:26:00,mcc,36.57
2022-02-05T07:27:00,mcc,34.96
2022-02-05T07:28:00,mcc,38.08
2022-02-05T07:29:00,mcc,34.30
2022-02-05T07:30:00,mcc,35.14
2022-02-05T07:31:00,mcc,35.83
2022-02-05T07:32:00,mcc,35.98
2022-02-05T07:33:00,mcc,37.28
2022-02-05T07:34:00,mcc,33.88
2022-02-05T07:35:00,mcc,38.29
2022-02-05T07:36:00,mcc,38.48
2022-02-05T07:37:00,mcc,44.44
2022-02-05T07:38:00,mcc,39.15
2022-02-05T07:39:00,mcc,37.09
2022-02-05T07:40:00,mcc,37.02
2022-02-05T07:41:00,mcc,37.23
2022-02-05T07:42:00,mcc,38.98
2022-02-05T07:43:00,mcc,35.17
2022-02-05T07:44:00,mcc,35.79
2022-02-05T07:45:00,mcc,35.79
2022-02-05T07:46:00,mcc,35.45
2022-02-05T07:47:00,mcc,36.73
2022-02-05T07:48:00,mcc,35.28
2022-02-05T07:49:00,mcc,37.45
2022-02-05T07:50:00,mcc,39.37
2022-02-05T07:51:00,mcc,36.01
2022-02-05T07:52:00,mcc,35.62
2022-02-05T07:53:00,mcc,37.01
2022-02-05T07:54:00,mcc,34.69
2022-02-05T07:55:00,mcc,43.74
2022-02-05T07:56:00,mcc,37.24
2022-02-05T07:57:00,mcc,37.10
2022-02-05T07:58:00,mcc,35.94
2022-02-05T07:59:00,mcc,39.82
2022-02-05T08:00:00,mcc,36.85
2022-02-05T08:01:00,mcc,36.57
2022-02-05T08:02:00,mcc,38.72
2022-02-05T08:03:00,mcc,37.08
2022-02-05T08:04:00,mcc,37.74
2022-02-05T08:05:00,mcc,39.55
2022-02-05T08:06:00,mcc,37.67
2022-02-05T08:07:00,mcc,37.85
2022-02-05T08:08:00,mcc,35.37
2022-02-05T08:09:00,mcc,35.29
2022-02-05T08:10:00,mcc,36.08
2022-02-05T08:11:00,mcc,35.06
2022-02-05T08:12:00,mcc,44.22
2022-02-05T08:13:00,mcc,38.31
2022-02-05T08:14:00,mcc,36.72
2022-02-05T08:15:00,mcc,37.14
2022-02-05T08:16:00,mcc,35.71
2022-02-05T08:17:00,mcc,38.38
2022-02-05T08:18:00,mcc,37.93
2022-02-05T08:19:00,mcc,34.23
2022-02-05T08:20:00,mcc,37.31
2022-02-05T08:21:00,mcc,35.07
2022-02-05T08:22:00,mcc,33.64
2022-02-05T08:23:00,mcc,38.69
2022-02-05T08:24:00,mcc,37.24
2022-02-05T08:25:00,mcc,36.40
2022-02-05T08:26:00,mcc,37.80
2022-02-05T08:27:00,mcc,35.06
2022-02-05T08:28:00,mcc,35.94
2022-02-05T08:29:00,mcc,37.05
2022-02-05T08:30:00,mcc,36.72
2022-02-05T08:31:00,mcc,45.00
2022-02-05T08:32:00,mcc,38.61
2022-02-05T08:33:00,mcc,36.86
2022-02-05T08:34:00,mcc,37.71
2022-02-05T08:35:00,mcc,37.18
2022-02-05T08:36:00,mcc,36.93
2022-02-05T08:37:00,mcc,37.72
2022-02-05T08:38:00,mcc,36.82
2022-02-05T08:39:00,mcc,37.63
2022-02-05T08:40:00,mcc,41.05
2022-02-05T08:41:00,mcc,36.97
2022-02-05T08:42:00,mcc,37.83
2022-02-05T08:43:00,mcc,37.30
2022-02-05T08:44:00,mcc,37.20
2022-02-05T08:45:00,mcc,37.45
2022-02-05T08:46:00,mcc,38.13
2022-02-05T08:47:00,mcc,44.03
2022-02-05T08:48:00,mcc,48.89
2022-02-05T08:49:00,mcc,37.09
2022-02-05T08:50:00,mcc,38.28
2022-02-05T08:51:00,mcc,33.63
2022-02-05T08:52:00,mcc,34.98
2022-02-05T08:53:00,mcc,37.90
2022-02-05T08:54:00,mcc,38.03
2022-02-05T08:55:00,mcc,39.29
2022-02-05T08:56:00,mcc,43.15
2022-02-05T08:57:00,mcc,37.85
2022-02-05T08:58:00,mcc,37.49
2022-02-05T08:59:00,mcc,39.59
2022-02-05T09:00:00,mcc,37.39
2022-02-05T09:01:00,mcc,37.57
2022-02-05T09:02:00,mcc,39.71
2022-02-05T09:03:00,mcc,39.17
2022-02-05T09:04:00,mcc,36.26
2022-02-05T09:05:00,mcc,35.94
2022-02-05T09:06:00,mcc,41.56
2022-02-05T09:07:00,mcc,34.12
2022-02-05T09:08:00,mcc,38.04
2022-02-05T09:09:00,mcc,38.92
2022-02-05T09:10:00,mcc,40.08
2022-02-05T09:11:00,mcc,43.05
2022-02-05T09:12:00,mcc,38.19
2022-02-05T09:13:00,mcc,38.50
2022-02-05T09:14:00,mcc,38.41
2022-02-05T09:15:00,mcc,38.49
2022-02-05T09:16:00,mcc,36.36
2022-02-05T09:17:00,mcc,39.00
2022-02-05T09:18:00,mcc,39.07
2022-02-05T09:19:00,mcc,36.97
2022-02-05T09:20:00,mcc,39.60
2022-02-05T09:21:00,mcc,37.07
2022-02-05T09:22:00,mcc,39.29
2022-02-05T09:23:00,mcc,38.40
2022-02-05T09:24:00,mcc,37.87
2022-02-05T09:25:00,mcc,47.41
2022-02-05T09:26:00,mcc,39.26
2022-02-05T09:27:00,mcc,36.79
2022-02-05T09:28:00,mcc,36.06
2022-02-05T09:29:00,mcc,36.66
2022-02-05T09:30:00,mcc,36.08
2022-02-05T09:31:00,mcc,36.47
2022-02-05T09:32:00,mcc,38.11
2022-02-05T09:33:00,mcc,37.34
2022-02-05T09:34:00,mcc,39.38
2022-02-05T09:35:00,mcc,36.99
2022-02-05T09:36:00,mcc,38.26
2022-02-05T09:37:00,mcc,38.44
2022-02-05T09:38:00,mcc,42.09
2022-02-05T09:39:00,mcc,43.36
2022-02-05T09:40:00,mcc,45.37
2022-02-05T09:41:00,mcc,45.29
2022-02-05T09:42:00,mcc,37.58
2022-02-05T09:43:00,mcc,38.09
2022-02-05T09:44:00,mcc,43.97
2022-02-05T09:45:00,mcc,39.16
2022-02-05T09:46:00,mcc,41.54
2022-02-05T09:47:00,mcc,42.18
2022-02-05T09:48:00,mcc,37.78
2022-02-05T09:49:00,mcc,37.90
2022-02-05T09:50:00,mcc,41.25
2022-02-05T09:51:00,mcc,37.12
2022-02-05T09:52:00,mcc,36.39
2022-02-05T09:53:00,mcc,37.59
2022-02-05T09:54:00,mcc,34.84
2022-02-05T09:55:00,mcc,35.74
2022-02-05T09:56:00,mcc,37.57
2022-02-05T09:57:00,mcc,37.65
2022-02-05T09:58:00,mcc,39.36
2022-02-05T09:59:00,mcc,39.39
2022-02-05T10:00:00,mcc,39.10
2022-02-05T10:01:00,mcc,37.86
2022-02-05T10:02:00,mcc,39.68
2022-02-05T10:03:00,mcc,39.24
2022-02-05T10:04:00,mcc,39.91
2022-02-05T10:05:00,mcc,37.25
2022-02-05T10:06:00,mcc,35.37
2022-02-05T10:07:00,mcc,36.12
2022-02-05T10:08:00,mcc,35.90
2022-02-05T10:09:00,mcc,39.46
2022-02-05T10:10:00,mcc,41.75
2022-02-05T10:11:00,mcc,40.61
2022-02-05T10:12:00,mcc,42.28
2022-02-05T10:13:00,mcc,41.10
2022-02-05T10:14:00,mcc,38.26
2022-02-05T10:15:00,mcc,37.46
2022-02-05T10:16:00,mcc,38.63
2022-02-05T10:17:00,mcc,38.06
2022-02-05T10:18:00,mcc,37.13
2022-02-05T10:19:00,mcc,45.58
2022-02-05T10:20:00,mcc,37.84
2022-02-05T10:21:00,mcc,34.90
2022-02-05T10:22:00,mcc,38.40
2022-02-05T10:23:00,mcc,40.97
2022-02-05T10:24:00,mcc,38.14
2022-02-05T10:25:00,mcc,36.98
2022-02-05T10:26:00,mcc,39.11
2022-02-05T10:27:00,mcc,38.03
2022-02-05T10:28:00,mcc,35.56
2022-02-05T10:29:00,mcc,36.50
2022-02-05T10:30:00,mcc,34.22
2022-02-05T10:31:00,mcc,34.26
2022-02-05T10:32:00,mcc,35.50
2022-02-05T10:33:00,mcc,35.69
2022-02-05T10:34:00,mcc,38.50
2022-02-05T10:35:00,mcc,39.47
2022-02-05T10:36:00,mcc,38.71
2022-02-05T10:37:00,mcc,37.18
2022-02-05T10:38:00,mcc,44.99
2022-02-05T10:39:00,mcc,36.75
2022-02-05T10:40:00,mcc,39.20
2022-02-05T10:41:00,mcc,39.15
2022-02-05T10:42:00,mcc,38.16
2022-02-05T10:43:00,mcc,36.97
2022-02-05T10:44:00,mcc,36.83
2022-02-05T10:45:00,mcc,35.45
2022-02-05T10:46:00,mcc,37.86
2022-02-05T10:47:00,mcc,41.92
2022-02-05T10:48:00,mcc,41.74
2022-02-05T10:49:00,mcc,40.01
2022-02-05T10:50:00,mcc,41.75
2022-02-05T10:51:00,mcc,36.50
2022-02-05T10:52:00,mcc,37.62
2022-02-05T10:53:00,mcc,38.34
2022-02-05T10:54:00,mcc,35.59
2022-02-05T10:55:00,mcc,35.02
2022-02-05T10:56:00,mcc,46.82
2022-02-05T10:57:00,mcc,39.30
2022-02-05T10:58:00,mcc,40.50
2022-02-05T10:59:00,mcc,44.70
2022-02-05T11:00:00,mcc,42.03
2022-02-05T11:01:00,mcc,38.59
2022-02-05T11:02:00,mcc,39.59
2022-02-05T11:03:00,mcc,38.54
2022-02-05T11:04:00,mcc,40.40
2022-02-05T11:05:00,mcc,44.02
2022-02-05T11:06:00,mcc,42.40
2022-02-05T11:07:00,mcc,48.92
2022-02-05T11:08:00,mcc,50.33
2022-02-05T11:09:00,mcc,47.11
2022-02-05T11:10:00,mcc,38.30
2022-02-05T11:11:00,mcc,40.80
2022-02-05T11:12:00,mcc,37.90
2022-02-05T11:13:00,mcc,38.18
2022-02-05T11:14:00,mcc,51.17
2022-02-05T11:15:00,mcc,40.85
2022-02-05T11:16:00,mcc,38.79
2022-02-05T11:17:00,mcc,39.53
2022-02-05T11:18:00,mcc,38.90
2022-02-05T11:19:00,mcc,38.66
2022-02-05T11:20:00,mcc,40.00
2022-02-05T11:21:00,mcc,39.09
2022-02-05T11:22:00,mcc,41.67
2022-02-05T11:23:00,mcc,46.75
2022-02-05T11:24:00,mcc,45.58
2022-02-05T11:25:00,mcc,43.36
2022-02-05T11:26:00,mcc,41.92
2022-02-05T11:27:00,mcc,39.72
2022-02-05T11:28:00,mcc,38.68
2022-02-05T11:29:00,mcc,41.10
2022-02-05T11:30:00,mcc,46.43
2022-02-05T11:31:00,mcc,41.16
2022-02-05T11:32:00,mcc,42.39
2022-02-05T11:33:00,mcc,38.54
2022-02-05T11:34:00,mcc,36.35
2022-02-05T11:35:00,mcc,40.45
2022-02-05T11:36:00,mcc,38.36
2022-02-05T11:37:00,mcc,39.62
2022-02-05T11:38:00,mcc,38.73
2022-02-05T11:39:00,mcc,38.79
2022-02-05T11:40:00,mcc,36.35
2022-02-05T11:41:00,mcc,37.92
2022-02-05T11:42:00,mcc,41.23
2022-02-05T11:43:00,mcc,39.41
2022-02-05T11:44:00,mcc,38.98
2022-02-05T11:45:00,mcc,36.43
2022-02-05T11:46:00,mcc,36.92
2022-02-05T11:47:00,mcc,37.05
2022-02-05T11:48:00,mcc,39.40
2022-02-05T11:49:00,mcc,41.97
2022-02-05T11:50:00,mcc,48.17
2022-02-05T11:51:00,mcc,39.78
2022-02-05T11:52:00,mcc,38.45
2022-02-05T11:53:00,mcc,36.69
2022-02-05T11:54:00,mcc,38.72
2022-02-05T11:55:00,mcc,42.30
2022-02-05T11:56:00,mcc,39.24
2022-02-05T11:57:00,mcc,38.18
2022-02-05T11:58:00,mcc,37.39
2022-02-05T11:59:00,mcc,38.39
2022-02-05T12:00:00,mcc,36.97
2022-02-05T12:01:00,mcc,35.69
2022-02-05T12:02:00,mcc,37.94
2022-02-05T12:03:00,mcc,37.53
2022-02-05T12:04:00,mcc,40.03
2022-02-05T12:05:00,mcc,39.83
2022-02-05T12:06:00,mcc,39.39
2022-02-05T12:07:00,mcc,41.82
2022-02-05T12:08:00,mcc,41.86
2022-02-05T12:09:00,mcc,40.47
2022-02-05T12:10:00,mcc,39.34
2022-02-05T12:11:00,mcc,37.16
2022-02-05T12:12:00,mcc,36.91
2022-02-05T12:13:00,mcc,38.75
2022-02-05T12:14:00,mcc,40.19
2022-02-05T12:15:00,mcc,39.20
2022-02-05T12:16:00,mcc,38.84
2022-02-05T12:17:00,mcc,38.11
2022-02-05T12:18:00,mcc,37.52
2022-02-05T12:19:00,mcc,36.63
2022-02-05T12:20:00,mcc,37.93
2022-02-05T12:21:00,mcc,40.31
2022-02-05T12:22:00,mcc,38.17
2022-02-05T12:23:00,mcc,37.84
2022-02-05T12:24:00,mcc,39.27
2022-02-05T12:25:00,mcc,41.38
2022-02-05T12:26:00,mcc,41.43
2022-02-05T12:27:00,mcc,39.89
2022-02-05T12:28:00,mcc,40.29
2022-02-05T12:29:00,mcc,38.29
2022-02-05T12:30:00,mcc,35.57
2022-02-05T12:31:00,mcc,37.06
2022-02-05T12:32:00,mcc,35.11
2022-02-05T12:33:00,mcc,35.92
2022-02-05T12:34:00,mcc,37.59
2022-02-05T12:35:00,mcc,39.96
2022-02-05T12:36:00,mcc,40.02
2022-02-05T12:37:00,mcc,37.41
2022-02-05T12:38:00,mcc,36.08
2022-02-05T12:39:00,mcc,37.95
2022-02-05T12:40:00,mcc,39.22
2022-02-05T12:41:00,mcc,38.32
2022-02-05T12:42:00,mcc,38.45
2022-02-05T12:43:00,mcc,47.77
2022-02-05T12:44:00,mcc,39.96
2022-02-05T12:45:00,mcc,43.44
2022-02-05T12:46:00,mcc,40.95
2022-02-05T12:47:00,mcc,41.35
2022-02-05T12:48:00,mcc,42.19
2022-02-05T12:49:00,mcc,37.55
2022-02-05T12:50:00,mcc,36.66
2022-02-05T12:51:00,mcc,35.92
2022-02-05T12:52:00,mcc,37.45
2022-02-05T12:53:00,mcc,40.54
2022-02-05T12:54:00,mcc,43.54
2022-02-05T12:55:00,mcc,38.50
2022-02-05T12:56:00,mcc,35.24
2022-02-05T12:57:00,mcc,39.05
2022-02-05T12:58:00,mcc,38.17
2022-02-05T12:59:00,mcc,37.33
2022-02-05T13:00:00,mcc,44.59
2022-02-05T13:01:00,mcc,47.63
2022-02-05T13:02:00,mcc,39.63
2022-02-05T13:03:00,mcc,40.03
2022-02-05T13:04:00,mcc,37.27
2022-02-05T13:05:00,mcc,36.75
2022-02-05T13:06:00,mcc,39.19
2022-02-05T13:07:00,mcc,35.74
2022-02-05T13:08:00,mcc,38.66
2022-02-05T13:09:00,mcc,37.92
2022-02-05T13:10:00,mcc,40.31
2022-02-05T13:11:00,mcc,39.68
2022-02-05T13:12:00,mcc,38.58
2022-02-05T13:13:00,mcc,40.62
2022-02-05T13:14:00,mcc,36.87
2022-02-05T13:15:00,mcc,38.36
2022-02-05T13:16:00,mcc,38.07
2022-02-05T13:17:00,mcc,38.70
2022-02-05T13:18:00,mcc,40.07